Ramona, CA

5:03 AM PDT on October 24, 2017 (GMT -0700)
Ramona

Weather History for KRNM - December, 2013

Change the Weather History Date:

Monday, December 30, 2013

  Actual Average Record
Temperature  
Mean Temperature 50 °F 50 °F  
Max Temperature 73 °F 65 °F 83 °F (1980)
Min Temperature 27 °F 34 °F 25 °F (2006)
Degree Days  
Heating Degree Days 15 15  
Month to date heating degree days 396 464  
Since 1 July heating degree days 825 875  
Cooling Degree Days 0 0  
Month to date cooling degree days 1 0  
Year to date cooling degree days 899 850  
Moisture  
Dew Point 13 °F    
Average Humidity 32    
Maximum Humidity 58    
Minimum Humidity 6    
Precipitation  
Precipitation 0.00 in 0.13 in 0.52 in (1991)
Month to date precipitation 0.84 2.10  
Year to date precipitation 7.26 15.91  
Since 1 July precipitation 2.76  
Snow  
Snow 0.00 in - - ()
Month to date snowfall 0.0  
Year to date snowfall 0.0  
Snow Depth 0.00 in    
Sea Level Pressure  
Sea Level Pressure 30.20 in    
Wind  
Wind Speed 2 mph (WNW)    
Max Wind Speed 10 mph    
Max Gust Speed 15 mph    
Visibility 10 miles    
Events      
T = Trace of Precipitation, MM = Missing Value Source: NWS Daily Summary

Daily Weather History Graph

Daily Weather History Graph

Search for Another Location

Airport or City:

Trip Planner

Search our weather history database for the weather conditions in past years. The results will help you decide how hot, cold, wet, or windy it might be!

Date:

Astronomy

Dec. 30, 2013 Rise Set
Actual Time 6:50 AM PST 4:50 PM PST
Civil Twilight 6:22 AM PST 5:17 PM PST
Nautical Twilight 5:52 AM PST 5:48 PM PST
Astronomical Twilight 5:22 AM PST 6:18 PM PST
Moon 4:47 AM PST (12/30) 3:26 PM PST (12/30)
Length of Visible Light 10h 54m
Length of Day
10h 00m
Waning Crescent, 4% of the Moon is Illuminated
Dec 30
Waning Crescent
Jan 1
New
Jan 7
First Quarter
Jan 15
Full
Jan 23
Last Quarter

Hourly Weather History & Observations

Time (PST) Temp. Windchill Dew Point Humidity Pressure Visibility Wind Dir Wind Speed Gust Speed Precip Events Conditions
12:53 AM 48.0 °F - 5.0 °F 17% 30.13 in 10.0 mi Calm Calm - N/A   Clear
1:53 AM 46.0 °F - 6.1 °F 20% 30.14 in 10.0 mi Calm Calm - N/A   Clear
2:53 AM 35.1 °F - 10.9 °F 37% 30.17 in 10.0 mi Calm Calm - N/A   Clear
3:53 AM 33.1 °F - 12.9 °F 43% 30.18 in 10.0 mi Calm Calm - N/A   Clear
4:53 AM 28.9 °F 25.2 °F 12.9 °F 51% 30.20 in 10.0 mi East 3.5 mph - N/A   Clear
5:53 AM 30.0 °F - 14.0 °F 51% 30.22 in 10.0 mi Calm Calm - N/A   Clear
6:53 AM 28.9 °F - 15.1 °F 56% 30.24 in 10.0 mi North - - N/A   Clear
7:53 AM 39.0 °F - 18.0 °F 43% 30.24 in 10.0 mi Calm Calm - N/A   Clear
8:53 AM 52.0 °F - 19.0 °F 27% 30.24 in 10.0 mi Calm Calm - N/A   Clear
9:53 AM 62.1 °F - 7.0 °F 11% 30.25 in 10.0 mi Calm Calm - N/A   Clear
10:53 AM 66.9 °F - 3.0 °F 8% 30.22 in 10.0 mi Calm Calm - N/A   Clear
11:53 AM 69.1 °F - 1.0 °F 7% 30.19 in 10.0 mi Calm Calm - N/A   Clear
12:53 PM 72.0 °F - -0.0 °F 6% 30.16 in 10.0 mi NW 6.9 mph - N/A   Clear
1:53 PM 73.0 °F - 6.1 °F 7% 30.15 in 10.0 mi NW 8.1 mph - N/A   Clear
2:53 PM 71.1 °F - 9.0 °F 9% 30.15 in 10.0 mi West 8.1 mph - N/A   Clear
3:53 PM 66.9 °F - 16.0 °F 14% 30.17 in 10.0 mi West 6.9 mph - N/A   Clear
4:53 PM 53.1 °F - 19.0 °F 26% 30.19 in 10.0 mi WNW 8.1 mph - N/A   Clear
5:53 PM 52.0 °F - 17.1 °F 25% 30.21 in 10.0 mi Calm Calm - N/A   Clear
6:53 PM 46.0 °F - 19.0 °F 34% 30.23 in 10.0 mi Calm Calm - N/A   Clear
7:53 PM 42.1 °F - 21.0 °F 43% 30.24 in 9.0 mi Calm Calm - N/A   Clear
8:53 PM 39.0 °F - 19.9 °F 46% 30.23 in 10.0 mi Calm Calm - N/A   Clear
9:53 PM 36.0 °F 33.3 °F 21.9 °F 57% 30.22 in 9.0 mi ESE 3.5 mph - N/A   Clear
10:53 PM 35.1 °F - 21.9 °F 59% 30.22 in 10.0 mi Calm Calm - N/A   Clear
11:53 PM 34.0 °F - 21.9 °F 61% 30.20 in 10.0 mi Calm Calm - N/A   Clear